| time (UTC) | temp F | wind direction | speed MPH | gust MPH | rain 1hr in | rain 24hr in | rain mn in | humidity % | barometer mb |
| 20260906095805 | 79 | 162 | 1.0 | 2.0 | 0.00 | 0.00 | 0.00 | 84 | 1011.4 |
| 20260906095306 | 79 | 162 | 0.0 | 0.0 | 0.00 | 0.00 | 0.00 | 83 | 1011.0 |
| 20260906094806 | 79 | 162 | 0.0 | 0.0 | 0.00 | 0.00 | 0.00 | 83 | 1011.0 |
| 20260906092306 | 80 | 162 | 0.0 | 1.0 | 0.00 | 0.00 | 0.00 | 82 | 1010.9 |
| 20260906091806 | 80 | 162 | 0.0 | 1.0 | 0.00 | 0.00 | 0.00 | 82 | 1010.9 |
| 20260906091306 | 80 | 162 | 1.0 | 3.0 | 0.00 | 0.00 | 0.00 | 82 | 1010.8 |
| 20260906090806 | 80 | 162 | 1.0 | 3.0 | 0.00 | 0.00 | 0.00 | 82 | 1010.7 |
| 20260906083805 | 81 | 138 | 5.0 | 7.0 | 0.00 | 0.00 | 0.00 | 81 | 1010.7 |
| 20260906083305 | 81 | 183 | 3.0 | 7.0 | 0.00 | 0.00 | 0.00 | 80 | 1010.7 |
| 20260906082805 | 81 | 162 | 5.0 | 7.0 | 0.00 | 0.00 | 0.00 | 80 | 1010.7 |
| 20260906082306 | 81 | 134 | 3.0 | 6.0 | 0.00 | 0.00 | 0.00 | 80 | 1010.7 |
| 20260906081805 | 81 | 152 | 4.0 | 6.0 | 0.00 | 0.00 | 0.00 | 80 | 1010.7 |
| 20260906080305 | 81 | 155 | 3.0 | 5.0 | 0.00 | 0.00 | 0.00 | 79 | 1010.9 |
| 20260906075805 | 81 | 154 | 3.0 | 6.0 | 0.00 | 0.00 | 0.00 | 79 | 1010.7 |
| 20260906075306 | 82 | 154 | 5.0 | 7.0 | 0.00 | 0.00 | 0.00 | 79 | 1010.7 |
| 20260906074806 | 82 | 154 | 3.0 | 5.0 | 0.00 | 0.00 | 0.00 | 78 | 1010.7 |
| 20260906073805 | 82 | 156 | 5.0 | 8.0 | 0.00 | 0.00 | 0.00 | 78 | 1010.7 |
| 20260906071305 | 82 | 200 | 3.0 | 6.0 | 0.00 | 0.00 | 0.00 | 76 | 1011.1 |
| 20260906070305 | 83 | 185 | 3.0 | 6.0 | 0.00 | 0.00 | 0.00 | 75 | 1011.1 |
| 20260906065805 | 83 | 109 | 5.0 | 10.0 | 0.00 | 0.00 | 0.00 | 75 | 1011.0 |
| 20260906065306 | 83 | 156 | 6.0 | 9.0 | 0.00 | 0.00 | 0.00 | 75 | 1011.0 |
| 20260906064805 | 83 | 150 | 4.0 | 8.0 | 0.00 | 0.00 | 0.00 | 74 | 1011.1 |
| 20260906064305 | 83 | 168 | 4.0 | 8.0 | 0.00 | 0.00 | 0.00 | 74 | 1011.2 |
| 20260906063305 | 83 | 170 | 5.0 | 8.0 | 0.00 | 0.00 | 0.00 | 73 | 1011.2 |
| 20260906060805 | 84 | 153 | 5.0 | 9.0 | 0.00 | 0.00 | 0.00 | 71 | 1011.2 |
| 20260906055804 | 84 | 157 | 5.0 | 6.0 | 0.00 | 0.00 | 0.00 | 70 | 1011.2 |
| 20260906054805 | 84 | 164 | 4.0 | 7.0 | 0.00 | 0.00 | 0.00 | 70 | 1011.2 |
| 20260906053805 | 84 | 148 | 5.0 | 8.0 | 0.00 | 0.00 | 0.00 | 70 | 1011.2 |
| 20260906052805 | 84 | 175 | 5.0 | 7.0 | 0.00 | 0.00 | 0.00 | 70 | 1010.9 |
| 20260906052306 | 84 | 178 | 3.0 | 6.0 | 0.00 | 0.00 | 0.00 | 70 | 1010.9 |
| 20260906051304 | 85 | 172 | 2.0 | 5.0 | 0.00 | 0.00 | 0.00 | 69 | 1011.1 |
| 20260906050836 | 85 | 173 | 2.0 | 5.0 | 0.00 | 0.00 | 0.00 | 69 | 1011.1 |
| 20260906045804 | 85 | 173 | 3.0 | 6.0 | 0.00 | 0.00 | 0.00 | 69 | 1011.1 |
| 20260906045306 | 85 | 173 | 3.0 | 6.0 | 0.00 | 0.00 | 0.00 | 69 | 1011.1 |
| 20260906043304 | 85 | 145 | 5.0 | 9.0 | 0.00 | 0.00 | 0.00 | 68 | 1011.1 |
| 20260906042805 | 85 | 113 | 6.0 | 9.0 | 0.00 | 0.00 | 0.00 | 68 | 1011.0 |
| 20260906042306 | 85 | 127 | 3.0 | 7.0 | 0.00 | 0.00 | 0.00 | 68 | 1011.0 |
| 20260906041805 | 86 | 153 | 3.0 | 8.0 | 0.00 | 0.00 | 0.00 | 68 | 1011.0 |
| 20260906040804 | 86 | 137 | 6.0 | 9.0 | 0.00 | 0.00 | 0.00 | 67 | 1011.0 |
| 20260906035804 | 86 | 154 | 6.0 | 9.0 | 0.00 | 0.00 | 0.00 | 67 | 1011.1 |
| 20260906031804 | 87 | 134 | 5.0 | 10.0 | 0.00 | 0.00 | 0.00 | 65 | 1011.1 |
| 20260906030805 | 87 | 149 | 7.0 | 13.0 | 0.00 | 0.00 | 0.00 | 64 | 1011.0 |
| 20260906025805 | 87 | 121 | 8.0 | 18.0 | 0.00 | 0.00 | 0.00 | 64 | 1011.1 |
| 20260906024304 | 87 | 78 | 6.0 | 15.0 | 0.00 | 0.00 | 0.00 | 63 | 1010.6 |
| 20260906023304 | 88 | 80 | 6.0 | 12.0 | 0.00 | 0.00 | 0.00 | 62 | 1010.6 |
| 20260906022804 | 88 | 67 | 7.0 | 15.0 | 0.00 | 0.00 | 0.00 | 62 | 1010.7 |
| 20260906020804 | 88 | 122 | 7.0 | 12.0 | 0.00 | 0.00 | 0.00 | 61 | 1010.5 |
| 20260906015804 | 88 | 48 | 7.0 | 12.0 | 0.00 | 0.00 | 0.00 | 61 | 1010.2 |
| 20260906014805 | 89 | 128 | 7.0 | 12.0 | 0.00 | 0.00 | 0.00 | 60 | 1010.2 |
| 20260906013804 | 89 | 131 | 4.0 | 14.0 | 0.00 | 0.00 | 0.00 | 59 | 1010.2 |
| 20260906013304 | 90 | 11 | 10.0 | 18.0 | 0.00 | 0.00 | 0.00 | 58 | 1010.0 |
| 20260906012306 | 91 | 128 | 9.0 | 14.0 | 0.00 | 0.00 | 0.00 | 55 | 1009.6 |
| 20260906011804 | 92 | 57 | 9.0 | 14.0 | 0.00 | 0.00 | 0.00 | 54 | 1009.6 |
| 20260906010804 | 93 | 95 | 6.0 | 15.0 | 0.00 | 0.00 | 0.00 | 53 | 1009.5 |
| 20260906005306 | 94 | 17 | 8.0 | 13.0 | 0.00 | 0.00 | 0.00 | 50 | 1009.3 |
| 20260906004804 | 95 | 39 | 10.0 | 18.0 | 0.00 | 0.00 | 0.00 | 49 | 1009.1 |
| 20260906004305 | 95 | 136 | 4.0 | 8.0 | 0.00 | 0.00 | 0.00 | 47 | 1009.1 |
| 20260906002804 | 96 | 40 | 5.0 | 10.0 | 0.00 | 0.00 | 0.00 | 45 | 1009.1 |
| 20260906000808 | 96 | 140 | 7.0 | 10.0 | 0.00 | 0.00 | 0.00 | 44 | 1009.1 |
| 20260906000308 | 97 | 60 | 6.0 | 12.0 | 0.00 | 0.00 | 0.00 | 44 | 1009.0 |
| 20260905234808 | 97 | 94 | 6.0 | 12.0 | 0.00 | 0.00 | 0.00 | 44 | 1009.0 |
| 20260905234308 | 98 | 97 | 6.0 | 10.0 | 0.00 | 0.00 | 0.00 | 43 | 1009.0 |
| 20260905233808 | 98 | 71 | 5.0 | 12.0 | 0.00 | 0.00 | 0.00 | 43 | 1008.9 |
| 20260905233308 | 98 | 138 | 6.0 | 12.0 | 0.00 | 0.00 | 0.00 | 43 | 1009.0 |
| 20260905232808 | 98 | 133 | 5.0 | 9.0 | 0.00 | 0.00 | 0.00 | 43 | 1009.1 |
| 20260905232308 | 98 | 82 | 5.0 | 9.0 | 0.00 | 0.00 | 0.00 | 42 | 1009.1 |
| 20260905231807 | 98 | 96 | 5.0 | 10.0 | 0.00 | 0.00 | 0.00 | 42 | 1009.0 |
| 20260905231308 | 99 | 119 | 3.0 | 8.0 | 0.00 | 0.00 | 0.00 | 42 | 1009.0 |
| 20260905230308 | 99 | 124 | 6.0 | 9.0 | 0.00 | 0.00 | 0.00 | 41 | 1009.0 |
| 20260905225308 | 99 | 118 | 7.0 | 12.0 | 0.00 | 0.00 | 0.00 | 41 | 1009.0 |
| 20260905223308 | 99 | 108 | 2.0 | 8.0 | 0.00 | 0.00 | 0.00 | 41 | 1009.0 |
| 20260905222808 | 100 | 161 | 5.0 | 12.0 | 0.00 | 0.00 | 0.00 | 40 | 1009.0 |
| 20260905221307 | 100 | 127 | 4.0 | 9.0 | 0.00 | 0.00 | 0.00 | 40 | 1009.0 |
| 20260905215308 | 100 | 187 | 3.0 | 5.0 | 0.00 | 0.00 | 0.00 | 40 | 1009.3 |
| 20260905213307 | 99 | 243 | 1.0 | 8.0 | 0.00 | 0.00 | 0.00 | 39 | 1009.6 |
| 20260905212307 | 99 | 171 | 2.0 | 8.0 | 0.00 | 0.00 | 0.00 | 40 | 1009.6 |
| 20260905210807 | 99 | 153 | 4.0 | 9.0 | 0.00 | 0.00 | 0.00 | 40 | 1009.9 |
| 20260905210307 | 99 | 176 | 3.0 | 7.0 | 0.00 | 0.00 | 0.00 | 41 | 1009.9 |
| 20260905205308 | 99 | 127 | 3.0 | 6.0 | 0.00 | 0.00 | 0.00 | 40 | 1008.2 |
| 20260905203807 | 98 | 147 | 5.0 | 9.0 | 0.00 | 0.00 | 0.00 | 42 | 1008.5 |